SCP
0 0 0 0 0 0 0 0 0 0 0 0 0 0 0 0 0 0 0 0 0 0 0 0 0 0 0 0 0 0 0 0 0 0 0 0 0 0 0 0 0 0 0 0 0 0 0
0 0 0 0 0 0 0 0 0 0 0 0 0 0 0 0 0 0 0 0 0 0 0 0 0 0 0 0 0 0 0 0 0 0 0 0 0 0 0 0 0 0 0 0 0 0 0
0 0 0 0 0 0 0 0 0 0 0 0 0 0 0 0 0 0 0 0 0 0 0 0 0 0 0 0 0 0 0 0 0 0 0 0 0 0 0 0 0 0 0 0 0 0 0
0 0 0 0 0 0 0 0 0 0 0 0 0 0 0 0 0 0 0 0 0 0 0 0 0 0 0 0 0 0 0 0 0 0 0 0 0 0 0 0 0 0 0 0 0 0 0
0 0 0 0 0 0 0 0 0 0 0 0 0 0 0 0 0 0 0 0 0 0 0 0 0 0 0 0 0 0 0 0 0 0 0 0 0 0 0 0 0 0 0 0 0 0 0
-0 -0 0 0 0 0 0 0 0 0 0 0 0 0 0 0 0 0 0 0 0 0 0 0 0 0 0 0 0 0 0 0 0 0 0 0 0 0 0 0 0 0 0 0 0 0 0
0 -0 -0 0 0 0 0 0 0 0 0 0 0 0 0 0 0 0 0 0 0 0 0 0 0 0 0 0 0 0 0 0 0 0 0 0 0 0 0 0 0 0 0 0 0 0 0
0 0 0 -0 0 -0 0 0 0 0 0 0 0 0 0 0 0 0 0 0 0 0 0 0 0 0 0 0 0 0 0 0 0 0 0 0 0 0 0 0 0 0 0 0 0 0 0
0 0 -0 -0 -0 -0 -0 -0 -0 -0 -0 0 0 0 0 0 0 0 0 0 0 0 0 0 0 0 0 0 0 0 0 0 0 0 0 0 0 0 0 0 0 0 0 0 0 0 0
0 0 0 -0 -0 -0 -0 -0 -0 -0 -0 -0 -0 0 0 0 0 0 0 0 0 0 0 0 0 0 0 0 0 0 0 0 0 0 0 0 0 0 0 0 0 0 0 0 0 0 0
0 0 0 -0 -0 -0 -0 -0 -0 -0 -0 -0 -0 -0 0 0 0 0 0 0 0 0 0 0 0 0 0 0 0 0 0 0 0 0 0 0 0 0 0 0 0 0 0 0 0 0 0
0 0 0 0 -0 -0 -0 -0 -0 -0 -0 -0 -0 -0 0 -0 0 0 0 0 0 0 0 0 0 0 0 0 0 0 0 0 0 0 0 0 0 0 0 0 0 0 0 0 0 0 0
0 0 0 0 0 -0 -0 -0 -0 -0 -0 -0 0 0 -0 -0 0 0 0 0 0 0 0 0 0 0 0 0 0 0 0 0 0 0 0 0 0 0 0 0 0 0 0 0 0 0 0
0 0 0 0 0 0 -0 -0 -0 -0 -0 0 0 0 0 0 0 0 0 0 0 0 0 0 0 0 0 0 0 0 0 0 0 0 0 0 0 0 0 0 0 0 0 0 0 0 0
0 0 0 0 0 0 0 0 0 0 0 0 0 0 0 0 0 0 0 0 0 0 0 0 0 0 0 0 0 0 0 0 0 0 0 0 0 0 0 0 0 0 0 0 0 0 0
0 0 0 0 0 0 0 0 0 0 0 0 0 0 0 0 0 0 0 0 0 0 0 0 0 0 0 0 0 0 0 0 0 0 0 0 0 0 0 0 0 0 0 0 0 0 0
0 0 0 0 0 0 0 0 0 0 0 0 0 0 0 0 0 0 0 0 0 0 0 0 0 0 0 0 0 0 0 0 0 0 0 0 0 0 0 0 0 0 0 0 0 0 0
0 0 0 0 0 0 0 0 0 0 0 0 0 0 0 0 0 0 0 0 0 0 0 0 0 0 0 0 0 0 0 0 0 0 0 0 0 0 0 0 0 0 0 0 0 0 0
0 0 0 0 0 0 0 0 0 0 0 0 0 0 0 0 0 0 0 0 0 0 0 0 0 0 0 0 0 0 0 0 0 0 0 0 0 0 0 0 0 0 0 0 0 0 0
0 0 0 0 0 0 0 0 0 0 0 0 0 0 0 0 0 0 0 0 0 0 0 0 0 0 0 0 0 0 0 0 0 0 0 0 0 0 0 0 0 0 0 0 0 0 0
0 0 0 0 0 0 0 0 0 0 0 0 0 0 0 0 0 0 0 0 0 0 0 0 0 0 0 0 0 0 0 0 0 0 0 0 0 0 0 0 0 0 0 0 0 0 0
0 0 0 0 0 0 0 0 0 0 0 0 0 0 0 0 0 0 0 0 0 0 0 0 0 0 0 0 0 0 0 0 0 0 0 0 0 0 0 0 0 0 0 0 0 0 0
0 0 0 0 0 0 0 0 0 0 0 0 0 0 0 0 0 0 0 0 0 0 0 0 0 0 0 0 0 0 0 0 0 0 0 0 0 0 0 0 0 0 0 0 0 0 0
0 0 0 0 0 0 0 0 0 0 0 0 0 0 0 0 0 0 0 0 0 0 0 0 0 0 0 0 0 0 0 0 0 0 0 0 0 0 0 0 0 0 0 0 0 0 0
0 0 0 0 0 0 0 0 0 0 0 0 0 0 0 0 0 0 0 0 0 0 0 0 0 0 0 0 0 0 0 0 0 0 0 0 0 0 0 0 0 0 0 0 0 0 0
0 0 0 0 0 0 0 0 0 0 0 0 0 0 0 0 0 0 0 0 0 0 0 0 0 0 0 0 0 0 0 0 0 0 0 0 0 0 0 0 0 0 0 0 0 0 0
0 0 0 0 0 0 0 0 0 0 0 0 0 0 0 0 0 0 0 0 0 0 0 0 0 0 0 0 0 0 0 0 0 0 0 0 0 0 0 0 0 0 0 0 0 0 0
0 0 0 0 -0 0 0 0 0 0 0 0 0 0 0 0 0 0 0 0 0 0 0 0 0 0 0 0 0 0 0 0 0 0 0 0 0 0 0 0 0 0 0 0 0 0 0
0 0 0 0 0 0 0 0 0 0 0 0 0 0 0 0 0 0 0 0 0 0 0 0 0 0 0 0 0 0 0 0 0 0 0 0 0 0 0 0 0 0 0 0 0 0 0
Wind_Speed_500mb
43 41 37 34 27 18 18 19 20 19 19 19 19 18 18 17 16 13 12 10 10 10 10 7 15 15 13 11 10 3 5 8 11 14 13 6 11 8 9 8 7 5 9 5 5 4 11
47 43 39 36 34 27 19 13 13 14 14 13 13 13 11 10 8 7 6 7 7 10 8 6 13 10 4 8 5 5 6 9 9 11 10 5 6 5 12 6 4 7 9 5 5 8 7
45 44 44 38 35 32 26 19 13 11 9 8 7 8 9 7 6 5 4 3 6 9 6 10 15 21 18 10 9 8 9 10 10 13 8 13 14 4 12 10 10 9 6 5 9 6 3
41 42 42 42 41 34 32 27 18 11 7 5 3 3 5 5 4 3 3 5 6 3 6 13 11 14 9 12 12 8 9 10 10 12 14 16 14 11 4 14 9 7 4 6 11 4 5
36 37 39 39 39 38 35 28 28 18 9 4 1 1 2 3 3 3 4 5 3 3 5 8 8 8 9 10 8 7 7 5 11 11 13 14 8 6 8 8 8 11 8 11 10 4 4
32 34 35 37 38 37 37 33 25 27 17 6 1 3 4 2 1 3 6 2 6 8 9 14 11 8 7 3 6 6 8 10 5 11 4 2 4 7 8 9 6 3 9 6 8 7 9
32 33 32 33 35 38 38 38 30 23 26 12 1 2 5 6 5 7 14 7 2 5 14 10 6 11 11 15 15 4 7 8 5 5 8 4 11 4 8 5 5 3 5 7 2 5 9
27 30 33 33 35 33 37 39 37 29 23 21 7 5 8 10 9 13 13 5 8 18 16 17 18 15 9 5 4 11 4 2 6 6 5 8 4 7 6 3 2 2 7 4 1 2 9
21 23 29 33 32 36 34 34 37 33 25 26 14 1 5 10 11 11 10 6 16 12 1 5 8 6 4 8 4 9 6 1 1 4 3 3 11 6 3 3 2 3 9 8 10 20 12
19 18 19 25 31 32 33 35 32 33 27 25 20 8 8 10 6 7 8 11 4 3 3 5 3 3 3 3 2 8 4 2 3 7 11 11 6 3 3 2 6 6 6 8 14 15 8
17 20 20 19 21 28 32 33 34 32 28 19 20 13 3 8 5 11 9 7 4 5 2 5 5 1 5 2 2 6 14 4 4 9 4 6 5 3 5 6 7 9 6 9 8 14 15
20 18 20 23 23 22 26 29 33 32 28 18 16 14 5 6 8 9 14 5 2 1 10 6 2 2 6 2 3 2 2 7 7 4 13 8 3 4 7 3 4 1 7 7 4 5 8
20 23 22 20 22 23 24 25 27 29 28 19 9 11 10 1 6 11 11 1 2 6 3 9 5 4 3 4 4 3 2 5 2 7 9 7 7 5 2 4 5 5 8 5 4 5 4
21 23 25 25 24 24 24 23 25 24 25 23 9 5 5 3 4 6 8 6 8 3 6 4 4 4 5 1 3 1 5 6 3 4 3 6 5 3 4 6 6 5 5 5 8 8 12
22 24 26 26 26 26 26 26 24 24 22 20 17 8 5 4 7 6 4 4 5 4 7 11 5 8 7 6 2 5 1 2 4 5 5 3 5 7 7 1 4 7 6 4 7 6 8
34 31 28 27 25 24 25 25 26 24 22 17 13 10 15 9 6 11 7 8 2 3 6 5 6 2 6 9 8 7 6 5 7 2 6 3 5 2 6 2 2 7 3 5 6 7 10
35 36 36 30 27 23 22 24 23 24 22 16 9 5 10 7 3 6 6 5 5 5 2 3 4 6 4 3 6 3 2 5 2 7 0 1 2 9 3 13 7 6 5 6 6 8 7
36 37 38 37 30 26 22 21 22 21 20 13 5 7 9 7 6 6 5 5 9 14 6 3 6 4 9 9 9 9 7 4 8 13 7 5 5 9 5 7 6 6 10 17 9 10 8
36 32 30 33 31 26 24 21 21 20 19 14 5 7 12 11 7 9 3 4 6 10 11 8 9 7 4 9 8 11 7 5 6 6 5 9 8 4 9 6 5 9 15 16 4 6 16
35 32 26 28 29 29 25 22 20 18 18 15 4 5 5 10 7 7 10 10 9 6 5 9 7 9 9 12 10 9 14 8 12 12 8 7 5 15 17 12 3 9 16 21 21 8 25
44 42 39 33 30 28 27 22 20 17 15 13 6 3 4 5 10 10 6 6 17 12 10 16 7 21 14 11 13 11 11 10 10 11 8 6 9 21 29 31 31 31 32 30 31 37 28
56 53 47 45 38 32 27 25 22 17 13 11 7 5 3 6 4 10 8 14 20 13 17 12 15 14 19 14 12 8 15 15 13 17 13 9 6 2 10 28 33 40 36 41 44 45 50
42 52 54 54 46 42 33 27 22 20 12 5 9 8 4 6 6 9 9 12 16 15 11 5 16 14 17 14 4 2 5 4 3 11 18 10 7 4 12 6 13 21 36 42 36 39 29
24 28 32 37 46 47 42 35 27 21 17 14 14 9 8 10 11 13 3 7 12 17 4 8 9 15 7 11 5 2 7 13 17 22 19 13 6 7 9 5 14 7 7 3 10 5 5
34 34 28 36 36 38 40 44 39 32 21 18 15 12 8 12 13 12 14 9 7 5 5 6 3 5 14 8 5 8 8 7 11 4 19 22 19 8 8 15 27 24 8 3 4 8 4
37 38 37 33 35 36 38 44 49 43 32 27 22 20 12 11 13 10 11 18 12 14 8 8 5 13 8 8 6 9 12 4 10 9 2 7 22 14 11 10 13 10 11 7 2 19 12
39 46 46 45 43 47 54 52 48 46 39 33 29 25 18 12 12 9 10 9 11 10 1 10 11 9 10 10 11 10 13 3 8 10 12 8 10 25 24 17 14 13 8 5 10 6 8
41 43 43 42 38 49 49 47 49 34 31 33 38 32 22 9 12 15 16 7 7 8 7 14 9 6 9 11 8 7 8 8 5 4 9 16 14 10 13 18 27 11 4 6 19 30 30
35 34 24 23 26 31 32 34 42 33 22 12 30 33 24 19 9 15 22 20 19 13 8 20 0 6 12 7 3 4 6 4 8 7 6 9 10 5 11 3 7 6 12 10 20 31 34
Wind_Direction_500mb
40 43 39 39 34 30 24 27 30 40 47 58 63 76 90 99 100 106 114 108 73 70 101 133 155 152 115 114 66 93 132 141 148 161 155 184 184 194 194 139 148 161 148 154 153 235 267
35 36 43 42 42 40 36 19 15 21 36 48 67 75 87 101 107 117 116 72 51 77 63 166 167 142 49 111 60 95 114 105 158 155 170 174 195 164 128 125 253 122 143 164 232 221 242
35 33 34 41 40 44 40 37 29 10 15 31 63 88 100 103 116 116 85 81 101 79 70 142 136 109 70 93 63 111 98 102 124 149 151 173 144 220 137 136 136 142 176 170 206 206 251
34 32 32 32 38 36 37 37 33 36 22 17 41 93 118 121 118 128 137 111 90 100 126 132 127 78 79 80 81 92 94 77 105 127 144 147 116 112 101 127 143 210 225 225 138 256 178
31 32 31 31 32 36 36 30 29 27 30 29 340 214 192 181 165 143 114 111 113 121 123 120 112 113 97 73 47 88 127 109 96 119 132 129 98 116 155 211 191 201 251 212 167 166 294
25 28 27 27 27 30 32 34 31 28 19 12 353 286 282 261 206 149 139 143 142 99 89 77 89 127 77 68 48 102 122 135 108 112 114 169 174 204 199 220 252 182 234 198 266 103 260
10 15 24 24 27 22 25 27 32 34 27 20 312 238 247 250 197 168 152 127 42 101 62 63 45 88 91 90 66 50 116 96 106 216 220 170 222 202 73 22 13 15 281 279 110 59 297
1 4 6 19 15 27 22 20 24 26 31 25 15 189 190 200 201 178 184 270 240 146 87 69 77 81 93 84 85 30 110 267 217 197 185 195 172 100 85 23 360 342 293 270 194 88 300
350 355 357 357 17 11 19 23 18 21 24 23 34 190 162 170 181 201 255 217 141 135 260 74 72 63 71 83 50 5 22 239 89 115 188 190 98 128 233 157 274 62 312 11 321 319 245
332 342 349 354 354 4 7 8 20 19 20 23 29 67 131 157 172 195 159 149 149 135 229 93 120 7 20 126 149 38 37 146 171 113 68 76 116 195 183 136 320 249 33 330 315 326 307
320 329 335 341 353 354 356 1 4 13 19 22 28 45 97 177 202 178 175 150 66 117 31 110 110 180 52 283 66 5 30 17 44 106 238 95 164 172 206 53 339 50 353 317 313 292 312
316 316 321 328 334 346 350 354 353 1 8 15 24 20 58 119 182 210 186 177 58 247 251 134 116 159 192 99 80 327 81 77 110 100 67 91 85 343 35 88 30 87 275 257 275 273 251
313 314 309 317 321 328 339 345 347 348 354 3 3 36 18 116 157 152 169 155 265 233 121 159 148 178 173 127 134 6 147 136 250 177 187 155 135 115 358 233 162 264 285 299 233 215 288
323 323 320 312 317 320 323 334 336 341 340 342 345 336 46 142 150 149 152 207 242 33 160 124 153 169 225 344 132 197 200 182 127 267 178 205 193 164 29 34 7 4 339 300 281 310 334
316 319 323 318 311 317 324 324 330 331 335 334 321 307 253 229 186 191 189 228 289 145 117 163 164 219 166 173 274 224 52 33 59 358 305 283 151 121 61 52 295 129 217 62 288 204 261
315 321 317 319 316 312 318 320 324 328 328 329 312 302 274 288 197 167 218 255 212 117 134 194 229 269 212 168 212 209 176 116 139 27 342 79 254 164 110 226 99 272 78 194 205 256 254
306 310 315 313 313 311 314 315 321 325 329 323 307 252 250 260 187 230 225 197 155 160 195 235 190 172 224 216 268 258 63 118 163 132 19 308 271 117 174 203 194 152 212 225 302 282 289
296 302 303 310 306 309 310 316 314 325 330 324 277 258 233 196 216 252 235 196 153 161 186 237 284 245 210 178 203 227 218 134 162 168 167 88 320 264 289 74 359 300 250 234 230 185 238
280 292 303 301 321 304 308 308 314 326 334 343 266 265 233 200 225 212 166 178 226 165 186 191 212 243 208 207 219 209 192 113 167 200 190 162 181 250 193 170 180 238 216 234 223 317 247
261 271 284 292 312 321 304 307 308 314 332 325 271 258 238 210 260 271 189 208 200 235 219 178 169 177 192 212 228 194 197 165 177 183 168 180 254 246 262 334 122 210 216 221 215 211 259
262 268 268 270 288 303 315 297 301 306 322 322 219 246 214 223 216 226 217 160 187 187 219 195 212 227 207 222 204 231 201 155 175 176 169 212 212 255 265 278 287 270 263 249 226 240 255
252 256 262 267 267 275 295 306 296 295 309 290 265 241 264 270 243 215 184 203 206 166 174 205 226 190 222 248 232 211 193 201 198 182 196 189 232 73 262 263 262 269 268 259 252 256 261
252 252 255 258 262 266 271 285 298 291 296 258 264 269 205 163 217 223 217 217 213 181 207 238 216 191 209 226 182 33 286 308 309 201 204 193 194 207 270 88 310 275 249 243 255 254 256
282 268 251 253 251 256 259 264 274 287 267 267 265 244 245 241 220 225 289 226 216 211 264 171 202 216 123 139 117 237 241 247 246 238 241 215 193 245 277 303 250 84 65 318 267 358 342
312 297 284 257 257 260 255 254 257 262 264 255 261 233 234 256 255 246 222 204 176 163 183 200 138 116 147 157 226 245 196 223 212 280 246 231 235 244 250 237 286 289 108 2 308 196 167
289 289 281 276 267 262 254 259 250 246 252 248 242 239 226 276 233 231 202 212 216 213 168 171 160 172 164 218 210 229 234 194 182 158 131 222 231 221 213 257 276 92 106 57 296 276 122
286 286 278 270 251 253 251 241 255 263 239 234 236 225 216 234 241 187 210 202 181 195 264 136 166 165 173 198 217 230 244 52 231 207 173 156 197 216 226 243 265 113 101 90 254 13 307
284 291 290 271 261 240 247 239 233 258 262 276 260 221 211 229 259 231 221 183 168 191 194 141 139 173 188 204 211 209 244 181 234 181 191 184 189 198 229 249 256 98 132 287 347 315 308
284 290 317 302 279 241 241 232 242 231 245 264 245 221 215 218 250 236 229 219 208 188 177 178 53 145 172 191 229 192 203 180 237 243 189 227 237 247 219 40 93 296 290 310 305 300 303
Wind_Speed_850mb
43 41 37 34 27 18 18 19 20 19 19 19 19 18 18 17 16 13 12 10 10 10 10 7 15 15 13 11 10 3 5 8 11 14 13 6 11 8 9 8 7 5 9 5 5 4 11
47 43 39 36 34 27 19 13 13 14 14 13 13 13 11 10 8 7 6 7 7 10 8 6 13 10 4 8 5 5 6 9 9 11 10 5 6 5 12 6 4 7 9 5 5 8 7
45 44 44 38 35 32 26 19 13 11 9 8 7 8 9 7 6 5 4 3 6 9 6 10 15 21 18 10 9 8 9 10 10 13 8 13 14 4 12 10 10 9 6 5 9 6 3
41 42 42 42 41 34 32 27 18 11 7 5 3 3 5 5 4 3 3 5 6 3 6 13 11 14 9 12 12 8 9 10 10 12 14 16 14 11 4 14 9 7 4 6 11 4 5
36 37 39 39 39 38 35 28 28 18 9 4 1 1 2 3 3 3 4 5 3 3 5 8 8 8 9 10 8 7 7 5 11 11 13 14 8 6 8 8 8 11 8 11 10 4 4
32 34 35 37 38 37 37 33 25 27 17 6 1 3 4 2 1 3 6 2 6 8 9 14 11 8 7 3 6 6 8 10 5 11 4 2 4 7 8 9 6 3 9 6 8 7 9
32 33 32 33 35 38 38 38 30 23 26 12 1 2 5 6 5 7 14 7 2 5 14 10 6 11 11 15 15 4 7 8 5 5 8 4 11 4 8 5 5 3 5 7 2 5 9
27 30 33 33 35 33 37 39 37 29 23 21 7 5 8 10 9 13 13 5 8 18 16 17 18 15 9 5 4 11 4 2 6 6 5 8 4 7 6 3 2 2 7 4 1 2 9
21 23 29 33 32 36 34 34 37 33 25 26 14 1 5 10 11 11 10 6 16 12 1 5 8 6 4 8 4 9 6 1 1 4 3 3 11 6 3 3 2 3 9 8 10 20 12
19 18 19 25 31 32 33 35 32 33 27 25 20 8 8 10 6 7 8 11 4 3 3 5 3 3 3 3 2 8 4 2 3 7 11 11 6 3 3 2 6 6 6 8 14 15 8
17 20 20 19 21 28 32 33 34 32 28 19 20 13 3 8 5 11 9 7 4 5 2 5 5 1 5 2 2 6 14 4 4 9 4 6 5 3 5 6 7 9 6 9 8 14 15
20 18 20 23 23 22 26 29 33 32 28 18 16 14 5 6 8 9 14 5 2 1 10 6 2 2 6 2 3 2 2 7 7 4 13 8 3 4 7 3 4 1 7 7 4 5 8
20 23 22 20 22 23 24 25 27 29 28 19 9 11 10 1 6 11 11 1 2 6 3 9 5 4 3 4 4 3 2 5 2 7 9 7 7 5 2 4 5 5 8 5 4 5 4
21 23 25 25 24 24 24 23 25 24 25 23 9 5 5 3 4 6 8 6 8 3 6 4 4 4 5 1 3 1 5 6 3 4 3 6 5 3 4 6 6 5 5 5 8 8 12
22 24 26 26 26 26 26 26 24 24 22 20 17 8 5 4 7 6 4 4 5 4 7 11 5 8 7 6 2 5 1 2 4 5 5 3 5 7 7 1 4 7 6 4 7 6 8
34 31 28 27 25 24 25 25 26 24 22 17 13 10 15 9 6 11 7 8 2 3 6 5 6 2 6 9 8 7 6 5 7 2 6 3 5 2 6 2 2 7 3 5 6 7 10
35 36 36 30 27 23 22 24 23 24 22 16 9 5 10 7 3 6 6 5 5 5 2 3 4 6 4 3 6 3 2 5 2 7 0 1 2 9 3 13 7 6 5 6 6 8 7
36 37 38 37 30 26 22 21 22 21 20 13 5 7 9 7 6 6 5 5 9 14 6 3 6 4 9 9 9 9 7 4 8 13 7 5 5 9 5 7 6 6 10 17 9 10 8
36 32 30 33 31 26 24 21 21 20 19 14 5 7 12 11 7 9 3 4 6 10 11 8 9 7 4 9 8 11 7 5 6 6 5 9 8 4 9 6 5 9 15 16 4 6 16
35 32 26 28 29 29 25 22 20 18 18 15 4 5 5 10 7 7 10 10 9 6 5 9 7 9 9 12 10 9 14 8 12 12 8 7 5 15 17 12 3 9 16 21 21 8 25
44 42 39 33 30 28 27 22 20 17 15 13 6 3 4 5 10 10 6 6 17 12 10 16 7 21 14 11 13 11 11 10 10 11 8 6 9 21 29 31 31 31 32 30 31 37 28
56 53 47 45 38 32 27 25 22 17 13 11 7 5 3 6 4 10 8 14 20 13 17 12 15 14 19 14 12 8 15 15 13 17 13 9 6 2 10 28 33 40 36 41 44 45 50
42 52 54 54 46 42 33 27 22 20 12 5 9 8 4 6 6 9 9 12 16 15 11 5 16 14 17 14 4 2 5 4 3 11 18 10 7 4 12 6 13 21 36 42 36 39 29
24 28 32 37 46 47 42 35 27 21 17 14 14 9 8 10 11 13 3 7 12 17 4 8 9 15 7 11 5 2 7 13 17 22 19 13 6 7 9 5 14 7 7 3 10 5 5
34 34 28 36 36 38 40 44 39 32 21 18 15 12 8 12 13 12 14 9 7 5 5 6 3 5 14 8 5 8 8 7 11 4 19 22 19 8 8 15 27 24 8 3 4 8 4
37 38 37 33 35 36 38 44 49 43 32 27 22 20 12 11 13 10 11 18 12 14 8 8 5 13 8 8 6 9 12 4 10 9 2 7 22 14 11 10 13 10 11 7 2 19 12
39 46 46 45 43 47 54 52 48 46 39 33 29 25 18 12 12 9 10 9 11 10 1 10 11 9 10 10 11 10 13 3 8 10 12 8 10 25 24 17 14 13 8 5 10 6 8
41 43 43 42 38 49 49 47 49 34 31 33 38 32 22 9 12 15 16 7 7 8 7 14 9 6 9 11 8 7 8 8 5 4 9 16 14 10 13 18 27 11 4 6 19 30 30
35 34 24 23 26 31 32 34 42 33 22 12 30 33 24 19 9 15 22 20 19 13 8 20 0 6 12 7 3 4 6 4 8 7 6 9 10 5 11 3 7 6 12 10 20 31 34
Wind_Direction_850mb
40 43 39 39 34 30 24 27 30 40 47 58 63 76 90 99 100 106 114 108 73 70 101 133 155 152 115 114 66 93 132 141 148 161 155 184 184 194 194 139 148 161 148 154 153 235 267
35 36 43 42 42 40 36 19 15 21 36 48 67 75 87 101 107 117 116 72 51 77 63 166 167 142 49 111 60 95 114 105 158 155 170 174 195 164 128 125 253 122 143 164 232 221 242
35 33 34 41 40 44 40 37 29 10 15 31 63 88 100 103 116 116 85 81 101 79 70 142 136 109 70 93 63 111 98 102 124 149 151 173 144 220 137 136 136 142 176 170 206 206 251
34 32 32 32 38 36 37 37 33 36 22 17 41 93 118 121 118 128 137 111 90 100 126 132 127 78 79 80 81 92 94 77 105 127 144 147 116 112 101 127 143 210 225 225 138 256 178
31 32 31 31 32 36 36 30 29 27 30 29 340 214 192 181 165 143 114 111 113 121 123 120 112 113 97 73 47 88 127 109 96 119 132 129 98 116 155 211 191 201 251 212 167 166 294
25 28 27 27 27 30 32 34 31 28 19 12 353 286 282 261 206 149 139 143 142 99 89 77 89 127 77 68 48 102 122 135 108 112 114 169 174 204 199 220 252 182 234 198 266 103 260
10 15 24 24 27 22 25 27 32 34 27 20 312 238 247 250 197 168 152 127 42 101 62 63 45 88 91 90 66 50 116 96 106 216 220 170 222 202 73 22 13 15 281 279 110 59 297
1 4 6 19 15 27 22 20 24 26 31 25 15 189 190 200 201 178 184 270 240 146 87 69 77 81 93 84 85 30 110 267 217 197 185 195 172 100 85 23 360 342 293 270 194 88 300
350 355 357 357 17 11 19 23 18 21 24 23 34 190 162 170 181 201 255 217 141 135 260 74 72 63 71 83 50 5 22 239 89 115 188 190 98 128 233 157 274 62 312 11 321 319 245
332 342 349 354 354 4 7 8 20 19 20 23 29 67 131 157 172 195 159 149 149 135 229 93 120 7 20 126 149 38 37 146 171 113 68 76 116 195 183 136 320 249 33 330 315 326 307
320 329 335 341 353 354 356 1 4 13 19 22 28 45 97 177 202 178 175 150 66 117 31 110 110 180 52 283 66 5 30 17 44 106 238 95 164 172 206 53 339 50 353 317 313 292 312
316 316 321 328 334 346 350 354 353 1 8 15 24 20 58 119 182 210 186 177 58 247 251 134 116 159 192 99 80 327 81 77 110 100 67 91 85 343 35 88 30 87 275 257 275 273 251
313 314 309 317 321 328 339 345 347 348 354 3 3 36 18 116 157 152 169 155 265 233 121 159 148 178 173 127 134 6 147 136 250 177 187 155 135 115 358 233 162 264 285 299 233 215 288
323 323 320 312 317 320 323 334 336 341 340 342 345 336 46 142 150 149 152 207 242 33 160 124 153 169 225 344 132 197 200 182 127 267 178 205 193 164 29 34 7 4 339 300 281 310 334
316 319 323 318 311 317 324 324 330 331 335 334 321 307 253 229 186 191 189 228 289 145 117 163 164 219 166 173 274 224 52 33 59 358 305 283 151 121 61 52 295 129 217 62 288 204 261
315 321 317 319 316 312 318 320 324 328 328 329 312 302 274 288 197 167 218 255 212 117 134 194 229 269 212 168 212 209 176 116 139 27 342 79 254 164 110 226 99 272 78 194 205 256 254
306 310 315 313 313 311 314 315 321 325 329 323 307 252 250 260 187 230 225 197 155 160 195 235 190 172 224 216 268 258 63 118 163 132 19 308 271 117 174 203 194 152 212 225 302 282 289
296 302 303 310 306 309 310 316 314 325 330 324 277 258 233 196 216 252 235 196 153 161 186 237 284 245 210 178 203 227 218 134 162 168 167 88 320 264 289 74 359 300 250 234 230 185 238
280 292 303 301 321 304 308 308 314 326 334 343 266 265 233 200 225 212 166 178 226 165 186 191 212 243 208 207 219 209 192 113 167 200 190 162 181 250 193 170 180 238 216 234 223 317 247
261 271 284 292 312 321 304 307 308 314 332 325 271 258 238 210 260 271 189 208 200 235 219 178 169 177 192 212 228 194 197 165 177 183 168 180 254 246 262 334 122 210 216 221 215 211 259
262 268 268 270 288 303 315 297 301 306 322 322 219 246 214 223 216 226 217 160 187 187 219 195 212 227 207 222 204 231 201 155 175 176 169 212 212 255 265 278 287 270 263 249 226 240 255
252 256 262 267 267 275 295 306 296 295 309 290 265 241 264 270 243 215 184 203 206 166 174 205 226 190 222 248 232 211 193 201 198 182 196 189 232 73 262 263 262 269 268 259 252 256 261
252 252 255 258 262 266 271 285 298 291 296 258 264 269 205 163 217 223 217 217 213 181 207 238 216 191 209 226 182 33 286 308 309 201 204 193 194 207 270 88 310 275 249 243 255 254 256
282 268 251 253 251 256 259 264 274 287 267 267 265 244 245 241 220 225 289 226 216 211 264 171 202 216 123 139 117 237 241 247 246 238 241 215 193 245 277 303 250 84 65 318 267 358 342
312 297 284 257 257 260 255 254 257 262 264 255 261 233 234 256 255 246 222 204 176 163 183 200 138 116 147 157 226 245 196 223 212 280 246 231 235 244 250 237 286 289 108 2 308 196 167
289 289 281 276 267 262 254 259 250 246 252 248 242 239 226 276 233 231 202 212 216 213 168 171 160 172 164 218 210 229 234 194 182 158 131 222 231 221 213 257 276 92 106 57 296 276 122
286 286 278 270 251 253 251 241 255 263 239 234 236 225 216 234 241 187 210 202 181 195 264 136 166 165 173 198 217 230 244 52 231 207 173 156 197 216 226 243 265 113 101 90 254 13 307
284 291 290 271 261 240 247 239 233 258 262 276 260 221 211 229 259 231 221 183 168 191 194 141 139 173 188 204 211 209 244 181 234 181 191 184 189 198 229 249 256 98 132 287 347 315 308
284 290 317 302 279 241 241 232 242 231 245 264 245 221 215 218 250 236 229 219 208 188 177 178 53 145 172 191 229 192 203 180 237 243 189 227 237 247 219 40 93 296 290 310 305 300 303